METEOSAT-9 (MSG-2)

Last updated on Mon Sep 07 2026 00:02:40 GMT+0000 (Coordinated Universal Time)

1 28912U 05049B 26249.60074837 .00000110 00000+0 00000+0 0 9998 2 28912 9.5417 53.3376 0001754 347.3922 206.9222 1.00270604 7813
UTC large
Height (km)
Speed (km/s)
/
Latitude / Longitude
Inclination (degrees)
Orbital Period (minutes)
Azimuth
Elevation
Range (km)
Doppler Factor

Next 0 passes for location: London (51.5072 / 0.1276)

No passes found over London.
METEOSAT-9 (MSG-2)